#timestamp,LO_Frequency,Hit,StdDev 
1520978415.6,286047004.3,Y
1520978435.4,286047002.8,P
1520978455.2,286047001.3,N
1520978475.1,286047002.3,N
1520978476.0,286047002.3,N
1520978495.8,286047000.0,N
1520978515.7,286047001.5,N
1520978535.5,286047000.1,N
1520978555.3,286047000.5,N
1520978575.2,286047000.2,N
1520978595.0,286047000.5,N
1520978595.9,286047000.5,N
1520978615.8,286046998.2,N
1520978635.6,286046998.2,N
1520978655.4,286047000.4,N
1520978675.3,286046998.6,N
1520978695.1,286047001.0,N
1520978715.9,286046999.7,N
1520978735.7,286046999.7,N
1520978755.5,286047001.1,N
1520978775.4,286047002.4,N
1520978795.2,286047001.0,N
1520978815.0,286047000.9,N
1520978815.9,286047000.9,N
1520978835.8,286047000.9,N
1520978855.6,286046998.9,N
1520978875.5,286046997.1,N
1520978895.3,286046997.1,N
1520978915.1,286046997.0,N
1520978935.9,286047000.7,N
1520978955.7,286047000.1,N
1520978975.5,286047001.2,N
1520978995.4,286047000.7,N
1520979015.2,286046999.7,N
1520979035.1,286046999.8,N
1520979036.0,286046999.8,N
1520979055.8,286047000.8,N
1520979075.6,286047001.1,N
1520979095.5,286046998.1,N
1520979115.3,286047000.7,N
1520979135.2,286047000.5,N
1520979155.9,286047000.6,N
1520979175.7,286047002.8,N
1520979195.6,286047001.5,N
1520979215.4,286047002.4,N
1520979235.2,286046999.9,N
1520979255.1,286047002.2,N
1520979256.0,286047002.2,N
1520979275.8,286047000.0,N
1520979295.7,286047000.1,N
1520979315.5,286046998.2,N
1520979335.3,286046998.3,N
1520979355.2,286046998.1,N
1520979375.0,286046999.3,N
1520979375.9,286046999.3,N
1520979395.7,286046999.3,N
1520979415.6,286046998.6,N
1520979435.4,286046998.3,N
1520979455.3,286046998.7,N
1520979475.1,286046998.8,N
1520979476.0,286046998.8,N
1520979495.8,286046998.4,N
1520979515.7,286047002.7,N
1520979535.5,286047002.7,N
1520979555.3,286046999.8,N
1520979575.2,286046999.9,N
1520979595.0,286047000.9,N
1520979595.9,286047000.9,N
1520979615.8,286047000.4,N
1520979635.6,286047000.8,N
1520979655.5,286047000.8,N
1520979675.3,286046997.0,N
1520979695.1,286046996.6,N
1520979715.9,286046999.3,N
1520979735.7,286047000.9,N
1520979755.5,286047000.3,N
1520979775.4,286047000.2,N
1520979795.2,286047001.9,N
1520979815.1,286047001.5,N
1520979816.0,286047001.5,N
1520979835.8,286047002.3,N
1520979855.6,286047001.9,N
1520979875.5,286047002.6,N
1520979895.3,286046999.8,N
1520979915.2,286047000.4,N
1520979935.9,286047000.3,N
1520979955.7,286046998.6,N
1520979975.6,286047000.4,N
1520979995.4,286046998.1,N
1520980015.2,286046998.8,N
1520980035.1,286046998.8,N
1520980036.0,286046998.8,N
1520980055.8,286046999.0,N
1520980075.7,286046998.6,N
1520980095.5,286047001.1,N
1520980115.3,286046998.4,N
1520980135.2,286046998.8,N
1520980155.0,286046998.4,N
1520980155.9,286046998.4,N
1520980175.8,286046999.1,N
1520980195.6,286046997.4,N
1520980215.4,286046995.3,Y
1520980235.3,286046995.5,P
1520980255.1,286046998.0,N
1520980275.8,286046995.5,N
1520980295.7,286046997.0,N
1520980315.5,286046999.4,N
1520980335.4,286046996.5,N
1520980355.2,286046996.8,N
1520980375.0,286046995.7,N
1520980376.0,286046995.7,N
1520980395.8,286046995.1,Y
1520980415.6,286046997.0,P
1520980435.5,286046997.4,P
1520980455.3,286046995.5,P
1520980475.1,286046997.4,Y
1520980495.9,286047000.5,P
1520980515.7,286046999.3,N
1520980535.6,286047001.1,N
1520980555.4,286046998.2,N
1520980575.2,286046998.6,N
1520980595.1,286046999.1,N
1520980596.0,286046999.1,N
1520980615.8,286046996.9,N
1520980635.6,286046997.7,N
1520980685.5,286046993.3,E
1520980695.4,286046996.7,N
1520980715.3,286047002.3,P
1520980735.1,286046999.8,N
1520980755.8,286046999.9,N
1520980775.7,286047000.1,N
1520980795.5,286047000.8,N
1520980815.4,286047000.2,N
1520980835.2,286047002.6,N
1520980855.0,286047001.8,N
1520980855.9,286047001.8,N
1520980875.8,286047002.6,N
1520980895.6,286047002.4,N
1520980915.5,286047000.7,N
1520980935.3,286047002.1,N
1520980955.1,286046998.1,N
1520980975.9,286047001.0,N
1520980995.7,286046998.9,N
1520981015.5,286046998.8,N
1520981035.4,286046998.3,N
1520981055.2,286046999.9,N
1520981075.1,286046999.9,N
1520981076.0,286046999.9,N
1520981095.8,286046998.8,N
1520981115.6,286047001.2,N
1520981135.5,286046998.7,N
1520981155.3,286046998.8,N
1520981175.1,286046999.4,N
1520981195.9,286046998.2,N
1520981215.7,286046999.2,N
1520981235.6,286046999.3,N
1520981255.4,286046999.2,N
1520981275.2,286046998.7,N
1520981295.1,286046998.7,N
1520981296.0,286046998.7,N
1520981315.8,286046998.9,N
1520981335.6,286046998.4,N
1520981355.5,286046999.4,N
1520981375.3,286046999.4,N
1520981395.2,286046999.2,N
1520981415.9,286046998.9,N
1520981435.7,286046998.9,N
1520981455.6,286046996.9,N
1520981475.4,286046997.8,N
1520981495.2,286046999.1,N
1520981515.1,286046997.1,Y
1520981516.0,286046997.1,P
1520981535.8,286046999.3,N
1520981555.7,286046998.5,N
1520981575.5,286046998.2,N
1520981595.3,286046998.2,N
1520981615.2,286047000.6,N
1520981635.0,286046999.7,N
1520981635.9,286046999.7,N
1520981655.8,286047002.0,N
1520981675.6,286047002.3,N
1520981695.4,286047002.1,N
1520981715.3,286047002.8,N
1520981735.1,286047000.0,N
1520981755.8,286046998.9,N
1520981775.7,286046996.6,N
1520981795.5,286046997.8,N
1520981815.4,286046995.6,N
1520981835.2,286046996.9,N
1520981855.0,286046998.8,N
1520981855.9,286046998.8,N
1520981875.8,286046996.9,N
1520981895.6,286046999.6,N
1520981915.4,286046998.8,N
1520981935.3,286046998.4,N
1520981955.1,286047001.0,N
1520981975.9,286047000.0,N
1520981995.7,286047001.0,N
